Onweer radar Meer informatie blitzortung!


Regen radar Meer informatie rain snow radar


Bezoek onze andere website:

Template documentation
and downloads

And another site



15 daagse weersverwachting Halden (NO)

  • Overzicht
  • Per uur
  • 15 dagen
  • Extra
  • Vergelijk
  • Kaarten
  • Dagkaart
  • Meer »
  • Info
  • Statistieken
  • Directe link
    Temp 6h Neerslag Wind  
 07:29     18:38    Daglengte: 11:09 Vandaag
14:00
13°
 
4
20:00
13°
 
5
 07:31     18:35    Daglengte: 11:04 Morgen
02:00
13°
4.0 mm
6
08:00
13°
 
4
14:00
14°
6.4 mm
6
20:00
14°
25.9 mm
9
warningclass
 07:33     18:33    Daglengte: 11:00 Donderdag 06 Okt
02:00
12°
4.7 mm
6
08:00
11°
13.4 mm
7
14:00
13°
 
9
20:00
12°
8.9 mm
8
 07:36     18:30    Daglengte: 10:54 Vrijdag 07 Okt
02:00
11°
 
5
08:00
12°
7.5 mm
7
warningclass
Locatie info
Region: Østfold
Latitude: 59.1215°N
Longitude: 11.3845°E
15 masl
Postcode: 1771
Temp/Neerslag /Baro Onweer/Dauwpunt
    Temp Baro 1h Neerslag Dauwpunt Wind UV Bewolking  
 07:29     18:38    Daglengte: 11:09 Vandaag
12:00
13°
1013.5 hPa
11%
11.2°
4
Windvlaag: 6.7 m/s
60%
13:00
13°
1013.1 hPa
21%
11.3°
4
Windvlaag: 6.4 m/s
76%
14:00
13°
1012.6 hPa
73%
10.5°
4
Windvlaag: 6.6 m/s
69%
15:00
14°
1011.8 hPa
70%
10.4°
5
Windvlaag: 9.2 m/s
85%
16:00
14°
1011.2 hPa
21%
10.1°
5
Windvlaag: 9.2 m/s
64%
17:00
13°
1011.0 hPa
78%
10.2°
5
Windvlaag: 9.7 m/s
78%
18:00
13°
1010.2 hPa
78%
10.0°
5
Windvlaag: 9.6 m/s
86%
19:00
13°
1009.5 hPa
76%
9.9°
5
Windvlaag: 10.1 m/s
86%
20:00
13°
1008.6 hPa
81%
10.5°
5
Windvlaag: 10.1 m/s
86%
21:00
13°
1008.1 hPa 0.3 mm
82%
10.9°
6
Windvlaag: 11.1 m/s
86%
22:00
13°
1007.3 hPa 0.4 mm
80%
11.5°
5
Windvlaag: 11.6 m/s
86%
23:00
13°
1006.7 hPa 0.4 mm
82%
11.7°
6
Windvlaag: 12 m/s
79%
 07:31     18:35    Daglengte: 11:04 Morgen
00:00
13°
1006.1 hPa 1.0 mm
82%
12.1°
6
Windvlaag: 12.6 m/s
86%
01:00
13°
1005.6 hPa 0.9 mm
82%
12.2°
6
Windvlaag: 12.9 m/s
86%
02:00
13°
1005.2 hPa 1.0 mm
82%
12.7°
6
Windvlaag: 12.7 m/s
86%
03:00
14°
1004.8 hPa
82%
13.0°
6
Windvlaag: 11.7 m/s
86%
04:00
14°
1004.5 hPa
80%
12.8°
6
Windvlaag: 9.7 m/s
86%
05:00
14°
1004.4 hPa
22%
12.8°
5
Windvlaag: 8.8 m/s
86%
06:00
13°
1004.3 hPa
15%
12.5°
5
Windvlaag: 7.2 m/s
86%
07:00
13°
1004.3 hPa
15%
12.6°
4
Windvlaag: 6.2 m/s
86%
08:00
13°
1004.2 hPa
14%
12.7°
4
Windvlaag: 6.5 m/s
86%
09:00
13°
1003.9 hPa
15%
12.9°
4
Windvlaag: 7.4 m/s
79%
10:00
13°
1004.1 hPa
81%
13.1°
4
Windvlaag: 8.1 m/s
70%
11:00
14°
1003.9 hPa
82%
13.1°
5
Windvlaag: 8.8 m/s
83%
12:00
14°
1003.3 hPa
82%
13.6°
5
Windvlaag: 9 m/s
70%
13:00
14°
1002.1 hPa 3.0 mm
82%
13.8°
5
Windvlaag: 9.5 m/s
86%
14:00
14°
1001.1 hPa 3.4 mm
82%
13.8°
6
Windvlaag: 12.4 m/s
86%
15:00
15°
999.7 hPa
82%
14.1°
7
Windvlaag: 15.6 m/s
86%
16:00
15°
998.8 hPa 3.5 mm
82%
13.9°
8
Windvlaag: 17.7 m/s
86% warningclass
17:00
14°
997.9 hPa 5.4 mm
82%
13.9°
8
Windvlaag: 18.3 m/s
86% warningclass
18:00
14°
997.4 hPa 6.2 mm
82%
13.9°
9
Windvlaag: 19.4 m/s
86% warningclass
19:00
14°
997.1 hPa 5.4 mm
82%
13.5°
9
Windvlaag: 18.6 m/s
86% warningclass
20:00
14°
997.2 hPa 5.3 mm
82%
12.8°
9
Windvlaag: 17.3 m/s
86% warningclass
21:00
14°
997.7 hPa 4.7 mm
82%
11.8°
8
Windvlaag: 16.6 m/s
83%
22:00
14°
998.2 hPa
82%
10.3°
8
Windvlaag: 16.2 m/s
81%
23:00
13°
999.1 hPa
82%
8.9°
7
Windvlaag: 13.9 m/s
23%
 07:33     18:33    Daglengte: 11:00 Donderdag 06 Okt
00:00
12°
1000.2 hPa
82%
8.5°
7
Windvlaag: 10.1 m/s
19%
01:00
12°
1001.2 hPa
17%
7.8°
7
Windvlaag: 8.8 m/s
3%
02:00
12°
1001.9 hPa
14%
7.4°
6
Windvlaag: 8.9 m/s
1%
03:00
12°
1002.1 hPa
14%
7.3°
6
Windvlaag: 9.3 m/s
7%
04:00
12°
1002.2 hPa
14%
7.1°
6
Windvlaag: 9.7 m/s
16%
05:00
11°
1001.8 hPa 6.7 mm
21%
9.1°
6
Windvlaag: 9.5 m/s
57%
06:00
10°
1002.6 hPa 6.7 mm
21%
8.3°
5
Windvlaag: 8.7 m/s
26%
07:00
10°
1002.9 hPa
21%
7.7°
6
Windvlaag: 9 m/s
33%
08:00
11°
1003.2 hPa
21%
8.1°
7
Windvlaag: 9.9 m/s
54%
09:00
12°
1003.8 hPa
21%
8.3°
8
Windvlaag: 9.7 m/s
23%
10:00
12°
1004.5 hPa
21%
8.8°
8
Windvlaag: 10 m/s
37%
11:00
12°
1005.2 hPa
21%
8.4°
8
Windvlaag: 10 m/s
39%
12:00
13°
1006.0 hPa
21%
8.3°
9
Windvlaag: 9.6 m/s
19%
13:00
13°
1006.8 hPa
21%
7.8°
9
Windvlaag: 9.7 m/s
37%
14:00
13°
1007.3 hPa
24%
8.6°
9
Windvlaag: 10.5 m/s
60%
15:00
13°
1007.5 hPa
23%
8.7°
9
Windvlaag: 11.4 m/s
91%
16:00
12°
1007.6 hPa 4.5 mm
94%
9.3°
8
Windvlaag: 13.2 m/s
90%
17:00
12°
1007.6 hPa 4.5 mm
100%
8.4°
8
Windvlaag: 11.1 m/s
17%
18:00
12°
1008.1 hPa
30%
7.3°
8
Windvlaag: 11.1 m/s
7%
19:00
12°
1009.0 hPa
26%
7.3°
8
Windvlaag: 10.7 m/s
31%
20:00
12°
1009.7 hPa
24%
7.5°
8
Windvlaag: 11.6 m/s
80%
21:00
12°
1010.4 hPa
21%
7.7°
8
Windvlaag: 11.5 m/s
24%
22:00
11°
1010.9 hPa
21%
7.3°
8
Windvlaag: 10.9 m/s
10%
23:00
11°
1011.4 hPa
21%
7.9°
8
Windvlaag: 10.9 m/s
10%
 07:36     18:30    Daglengte: 10:54 Vrijdag 07 Okt
00:00
11°
1011.8 hPa
21%
8.1°
6
Windvlaag: 15.6 m/s
9%
01:00
11°
1012.0 hPa
21%
8.1°
6
Windvlaag: 14.4 m/s
29%
02:00
11°
1012.2 hPa
21%
8.1°
5
Windvlaag: 13.2 m/s
10%
03:00
11°
1012.1 hPa
21%
8.2°
5
Windvlaag: 13.7 m/s
11%
04:00
11°
1011.7 hPa
21%
8.9°
6
Windvlaag: 13.8 m/s
16%
05:00
11°
1011.0 hPa
22%
9.3°
6
Windvlaag: 14.2 m/s
14%
06:00
12°
1010.2 hPa
64%
8.6°
5
Windvlaag: 14.7 m/s
38%
07:00
12°
1009.0 hPa
92%
9.6°
6
Windvlaag: 15.7 m/s
85%
08:00
12°
1008.0 hPa 7.5 mm
100%
10.0°
7
Windvlaag: 17.6 m/s
78% warningclass
09:00
13°
1007.8 hPa 22.6 mm
100%
11.6°
10
Windvlaag: 18.2 m/s
100% warningclass
10:00
13°
1007.3 hPa 23.6 mm
100%
12.1°
10
Windvlaag: 18.5 m/s
100% warningclass
11:00
14°
1007.0 hPa 24.3 mm
100%
12.2°
11
Windvlaag: 18.2 m/s
100% warningclass
Temp/Neerslag /Baro Onweer/Dauwpunt
    Temp Baro Neerslag Dauwpunt Wind Bewolking  
 07:29     18:38    Daglengte: 11:09 Vandaag
14:00
13°
1012.6 hPa   10.5°
4
69%
17:00
13°
1011.0 hPa   10.2°
5
78%
20:00
13°
1008.6 hPa   10.5°
5
86%
23:00
13°
1006.7 hPa 1.1 mm 11.7°
6
79%
 07:31     18:35    Daglengte: 11:04 Morgen
02:00
13°
1005.2 hPa 3.0 mm 12.7°
6
86%
05:00
14°
1004.4 hPa   12.8°
5
86%
08:00
13°
1004.2 hPa   12.7°
4
86%
11:00
14°
1003.9 hPa   13.1°
5
83%
14:00
14°
1001.1 hPa 6.4 mm 13.8°
6
86%
17:00
14°
997.9 hPa 8.9 mm 13.9°
8
86% warningclass
20:00
14°
997.2 hPa 17.0 mm 12.8°
9
86% warningclass
23:00
13°
999.1 hPa 4.7 mm 8.9°
7
23%
 07:33     18:33    Daglengte: 11:00 Donderdag 06 Okt
02:00
12°
1001.9 hPa   7.4°
6
1%
05:00
11°
1001.8 hPa 6.7 mm 9.1°
6
57%
08:00
11°
1003.2 hPa 6.7 mm 8.1°
7
54%
11:00
12°
1005.2 hPa   8.4°
8
39%
14:00
13°
1007.3 hPa   8.6°
9
60%
17:00
12°
1007.6 hPa 8.9 mm 8.4°
8
17%
20:00
12°
1009.7 hPa   7.5°
8
80%
23:00
11°
1011.4 hPa   7.9°
8
10%
 07:36     18:30    Daglengte: 10:54 Vrijdag 07 Okt
02:00
11°
1012.2 hPa   8.1°
5
10%
05:00
11°
1011.0 hPa   9.3°
6
14%
08:00
12°
1008.0 hPa 7.5 mm 10.0°
7
78% warningclass
11:00
14°
1007.0 hPa 70.5 mm 12.2°
11
100% warningclass
14:00
14°
1005.5 hPa 76.6 mm 11.7°
10
100% warningclass
17:00
13°
1003.5 hPa 19.3 mm 11.4°
9
1%
20:00
12°
1001.4 hPa 21.2 mm 11.2°
9
1%
23:00
11°
1000.9 hPa 22.5 mm 9.1°
8
1%
 07:38     18:27    Daglengte: 10:49 Zaterdag 08 Okt
02:00
10°
999.5 hPa 23.5 mm 8.6°
6
1%
05:00
10°
Voelt als: 6.9°
998.7 hPa 24.0 mm 7.3°
7
1%
08:00
10°
Voelt als: 6.4°
998.9 hPa 24.3 mm 6.6°
8
1%
11:00
11°
1000.0 hPa 24.3 mm 6.2°
8
1%
14:00
13°
1001.5 hPa 24.3 mm 5.0°
7
0%
17:00
12°
1003.6 hPa 24.3 mm 3.5°
7
0%
20:00
10°
Voelt als: 7.1°
1006.6 hPa 24.3 mm 2.9°
6
0%
23:00
Voelt als: 6.0°
1009.2 hPa 24.3 mm 1.6°
5
0%
 07:40     18:24    Daglengte: 10:44 Zondag 09 Okt
02:00
Voelt als: 5.4°
1010.7 hPa 24.3 mm 2.4°
4
0%
05:00
Voelt als: 5.3°
1012.0 hPa 24.3 mm 3.4°
2
0%
08:00
Voelt als: 6.1°
1013.4 hPa 24.3 mm 3.5°
1
0%
11:00
11°
1014.1 hPa 24.3 mm 4.3°
2
1%
14:00
12°
1014.0 hPa 24.3 mm 6.6°
5
1%
17:00
12°
1013.2 hPa 24.4 mm 8.5°
5
1%
20:00
12°
1011.8 hPa 24.5 mm 8.9°
6
1%
23:00
12°
1010.7 hPa 24.7 mm 8.7°
7
1%
 07:43     18:21    Daglengte: 10:38 Maandag 10 Okt
02:00
11°
1008.0 hPa 24.7 mm 8.0°
6
1%
05:00
11°
1004.7 hPa 24.7 mm 8.3°
7
1%
08:00
11°
1002.3 hPa 27.0 mm 9.8°
7
1%
11:00
11°
1002.6 hPa 28.7 mm 6.9°
7
1%
14:00
12°
1003.4 hPa 28.7 mm 7.0°
7
1%
17:00
11°
1003.8 hPa 29.3 mm 7.0°
7
0%
20:00
10°
Voelt als: 6.4°
1004.5 hPa 29.5 mm 6.2°
7
0%
23:00
10°
Voelt als: 6.3°
1003.2 hPa 30.7 mm 7.5°
8
1%
 07:45     18:18    Daglengte: 10:33 Dinsdag 11 Okt
02:00
10°
Voelt als: 6.0°
1002.2 hPa 31.0 mm 6.5°
8
1%
05:00
10°
Voelt als: 6.5°
1001.0 hPa 31.1 mm 6.8°
8
1%
08:00
10°
999.9 hPa 31.2 mm 7.1°
9
1%
11:00
11°
1000.8 hPa   6.6°
8
1%
14:00
12°
1000.4 hPa 62.9 mm 7.5°
7
1%
20:00
10°
1000.6 hPa 63.0 mm 7.5°
6
0%
 07:47     18:15    Daglengte: 10:28 Woensdag 12 Okt
02:00
10°
Voelt als: 7.0°
999.9 hPa 63.0 mm 5.1°
5
1%
08:00
Voelt als: 8.1°
996.6 hPa 63.2 mm 7.6°
1
1%
14:00
Voelt als: 6.4°
994.5 hPa 65.8 mm 7.2°
3
1%
20:00
Voelt als: 4.9°
997.3 hPa 70.9 mm 4.7°
2
1%
 07:50     18:12    Daglengte: 10:22 Donderdag 13 Okt
02:00
Voelt als: 4.9°
1000.3 hPa 71.0 mm 3.9°
1
1%
08:00
Voelt als: 4.9°
1002.1 hPa 71.0 mm 3.7°
1
1%
14:00
11°
1000.6 hPa 71.1 mm 6.1°
3
0%
20:00
Voelt als: 5.7°
991.4 hPa 72.2 mm 7.2°
7
1%
 07:52     18:10    Daglengte: 10:18 Vrijdag 14 Okt
02:00
Voelt als: 6.3°
984.6 hPa 103.3 mm 6.7°
4
1%
08:00
Voelt als: 6.9°
1005.5 hPa 0.6 mm 6.6°
2
73%
14:00
11°
1005.1 hPa 1.3 mm 7.2°
3
74%
20:00
Voelt als: 7.7°
1004.6 hPa 1.2 mm 6.6°
3
76%
 07:54     18:07    Daglengte: 10:13 Zaterdag 15 Okt
02:00
Voelt als: 7.1°
1004.6 hPa 1.3 mm 6.7°
3
76%
08:00
Voelt als: 6.7°
1003.9 hPa 1.6 mm 6.5°
3
80%
14:00
11°
1003.9 hPa 1.6 mm 7.2°
3
78%
20:00
Voelt als: 7.7°
1004.1 hPa 1.8 mm 7.0°
2
78%
 07:57     18:04    Daglengte: 10:07 Zondag 16 Okt
02:00
Voelt als: 7.2°
1004.8 hPa 0.8 mm 6.4°
2
75%
08:00
Voelt als: 7.4°
1005.6 hPa 0.7 mm 5.7°
1
63%
14:00
11°
1007.0 hPa 0.6 mm 5.9°
2
54%
20:00
Voelt als: 7.8°
1008.1 hPa 0.5 mm 5.4°
1
48%
 07:59     18:01    Daglengte: 10:02 Maandag 17 Okt
02:00
Voelt als: 6.6°
1009.0 hPa 0.4 mm 4.8°
1
51%
08:00
1010.0 hPa 0.6 mm 4.1°
1
54%
14:00
10°
Voelt als: 9.8°
1011.1 hPa 0.8 mm 5.3°
1
56%
20:00
Voelt als: 7.3°
1012.1 hPa 0.5 mm 5.3°
1
58%
 08:02     17:59    Daglengte: 9:57 Dinsdag 18 Okt
02:00
1012.6 hPa 0.5 mm 4.8°
1
56%
08:00
Voelt als: 5.8°
1012.8 hPa 0.8 mm 4.1°
1
58%
14:00
10°
Voelt als: 9.2°
1012.7 hPa 0.5 mm 5.5°
2
68%
20:00
Voelt als: 7.0°
1012.2 hPa 0.8 mm 5.5°
2
67%
 08:04     17:56    Daglengte: 9:52 Woensdag 19 Okt
02:00
Voelt als: 7.0°
1011.7 hPa 0.6 mm 5.1°
1
68%
08:00
Voelt als: 6.0°
1011.3 hPa 0.5 mm 4.6°
1
68%
  CAPE Lifted Index Hail Supercell Tornado SRH 3km CL BTM PRES CL TOP PRES Swiss DWD icon SMHI TS
 07:29     18:38    Daglengte: 11:09 Vandaag
12:00 0 J/kg 10.7 K 0 % 0 % 0 % 0 m²/s² 0 0 10.88 3
13:00 9 J/kg 10.1 K 0 % 0 % 0 % 0 m²/s² 0 0 10.31 3
14:00 24 J/kg 9.6 K 0 % 0 % 0 % 0 m²/s² 0 0 10.02 3
15:00 39 J/kg 9.0 K 0 % 0 % 0 % 0 m²/s² 0 0 10.08 3
16:00 20 J/kg 9.5 K 0 % 0 % 0 % 0 m²/s² 0 0 11 3
17:00 26 J/kg 8.8 K 0 % 0 % 0 % 0 m²/s² 0 0 10.27 3
18:00 32 J/kg 8.5 K 0 % 0 % 0 % 0 m²/s² 0 0 9.58 3
19:00 22 J/kg 8.3 K 0 % 0 % 0 % 0 m²/s² 0 0 9.29 3
20:00 21 J/kg 8.5 K 0 % 0 % 0 % 0 m²/s² 0 0 10.24 3
21:00 20 J/kg 8.1 K 0 % 0 % 0 % 0 m²/s² 0 0 10.23 3
22:00 10 J/kg 7.3 K 0 % 0 % 0 % 0 m²/s² 0 0 8.17 80
23:00 17 J/kg 6.2 K 0 % 0 % 0 % 0 m²/s² 0 0 6.62 3
 07:31     18:35    Daglengte: 11:04 Morgen
00:00 17 J/kg 5.9 K 0 % 0 % 0 % 0 m²/s² 0 0 6.02 80
01:00 16 J/kg 5.5 K 0 % 0 % 0 % 0 m²/s² 0 0 6.07 80
02:00 14 J/kg 5.4 K 0 % 0 % 0 % 0 m²/s² 0 0 6.78 3
03:00 8 J/kg 5.1 K 0 % 0 % 0 % 0 m²/s² 0 0 7.14 3
04:00 8 J/kg 5.7 K 0 % 0 % 0 % 0 m²/s² 0 0 8.52 3
05:00 4 J/kg 6.1 K 0 % 0 % 0 % 0 m²/s² 0 0 8.62 3
06:00 4 J/kg 6.1 K 0 % 0 % 0 % 0 m²/s² 0 0 7.96 3
07:00 5 J/kg 6.3 K 0 % 0 % 0 % 0 m²/s² 0 0 7.59 3
08:00 5 J/kg 5.8 K 0 % 0 % 0 % 0 m²/s² 0 0 6.22 3
09:00 2 J/kg 4.5 K 0 % 0 % 0 % 0 m²/s² 0 0 4.62 3
10:00 1 J/kg 4.2 K 0 % 0 % 0 % 0 m²/s² 0 0 4.23 61
11:00 1 J/kg 4.9 K 0 % 0 % 0 % 0 m²/s² 0 0 4.99 61
12:00 1 J/kg 4.8 K 0 % 0 % 0 % 0 m²/s² 0 0 4.92 3
13:00 2 J/kg 4.1 K 0 % 0 % 0 % 0 m²/s² 0 0 4.19 61
14:00 1 J/kg 4.0 K 0 % 0 % 0 % 0 m²/s² 0 0 5.2 61
15:00 1 J/kg 3.9 K 0 % 0 % 0 % 0 m²/s² 0 0 5.13 3
16:00 2 J/kg 3.4 K 0 % 0 % 0 % 0 m²/s² 0 0 5.23 61
17:00 0 J/kg 2.9 K 0 % 0 % 0 % 0 m²/s² 0 0 3.17 63
18:00 1 J/kg 2.6 K 0 % 0 % 0 % 0 m²/s² 0 0 2.63 63
19:00 3 J/kg 3.6 K 0 % 0 % 0 % 0 m²/s² 0 0 3.78 63
20:00 1 J/kg 3.8 K 0 % 0 % 0 % 0 m²/s² 0 0 4.01 61
21:00 11 J/kg 4.4 K 0 % 0 % 0 % 0 m²/s² 0 0 5 61
22:00 59 J/kg 4.9 K 0 % 0 % 0 % 0 m²/s² 0 0 4.99 61
23:00 13 J/kg 7.2 K 0 % 0 % 0 % 0 m²/s² 0 0 7.41 61
 07:33     18:33    Daglengte: 11:00 Donderdag 06 Okt
00:00 34 J/kg 7.7 K 0 % 0 % 0 % 0 m²/s² 0 0 9.17 61
01:00 40 J/kg 7.8 K 0 % 0 % 0 % 0 m²/s² 0 0 10.62 1
02:00 10 J/kg 7.9 K 0 % 0 % 0 % 0 m²/s² 0 0 9.85 2
03:00 0 J/kg 8.2 K 0 % 0 % 0 % 0 m²/s² 0 0 9.94 1
04:00 90 J/kg 5.4 K 0 % 0 % 0 % 0 m²/s² 0 0 7.32 1
05:00 269 J/kg 2.7 K 0 % 0 % 0 % 0 m²/s² 0 0 7.26 1
06:00 188 J/kg 1.4 K 0 % 0 % 0 % 0 m²/s² 0 0 5.51 2
07:00 212 J/kg -0.6 K 0 % 0 % 0 % 0 m²/s² 0 0 2.43 1
08:00 310 J/kg -1.1 K 0 % 0 % 0 % 0 m²/s² 0 0 -0.23 1
09:00 183 J/kg -0.4 K 0 % 0 % 0 % 0 m²/s² 0 0 -0.07 2
10:00 213 J/kg 0.2 K 0 % 0 % 0 % 0 m²/s² 0 0 0.65 2
11:00 202 J/kg 0.9 K 0 % 0 % 0 % 0 m²/s² 0 0 1.41 1
12:00 270 J/kg 0.2 K 0 % 0 % 0 % 0 m²/s² 0 0 1.1 1
13:00 303 J/kg -0.9 K 0 % 0 % 0 % 0 m²/s² 0 0 0.54 1
14:00 309 J/kg -1.5 K 0 % 0 % 0 % 0 m²/s² 0 0 0.06 1
15:00 329 J/kg -1.5 K 0 % 0 % 0 % 0 m²/s² 0 0 -1.23 3
16:00 410 J/kg -1.3 K 0 % 0 % 0 % 0 m²/s² 0 0 1.13 3
17:00 305 J/kg -0.5 K 0 % 0 % 0 % 0 m²/s² 0 0 2.08 80
18:00 152 J/kg 0.7 K 0 % 0 % 0 % 0 m²/s² 0 0 3.04 2
19:00 102 J/kg 1.0 K 0 % 0 % 0 % 0 m²/s² 0 0 4.45 1
20:00 83 J/kg 0.8 K 0 % 0 % 0 % 0 m²/s² 0 0 3.02 3
21:00 48 J/kg 1.0 K 0 % 0 % 0 % 0 m²/s² 0 0 2.83 2
22:00 10 J/kg 1.7 K 0 % 0 % 0 % 0 m²/s² 0 0 4.88 2
23:00 34 J/kg 1.1 K 0 % 0 % 0 % 0 m²/s² 0 0 4.67 1
 07:36     18:30    Daglengte: 10:54 Vrijdag 07 Okt
00:00 33 J/kg 0.8 K 0 % 0 % 0 % 0 m²/s² 0 0 4.88 1
01:00 31 J/kg 1.0 K 0 % 0 % 0 % 0 m²/s² 0 0 5.29 2
02:00 41 J/kg 1.6 K 0 % 0 % 0 % 0 m²/s² 0 0 5.2 1
03:00 67 J/kg 1.7 K 0 % 0 % 0 % 0 m²/s² 0 0 4.61 2
04:00 121 J/kg 1.5 K 0 % 0 % 0 % 0 m²/s² 0 0 4.44 2
05:00 125 J/kg 1.9 K 0 % 0 % 0 % 0 m²/s² 0 0 4.54 2
06:00 47 J/kg 2.9 K 0 % 0 % 0 % 0 m²/s² 0 0 4.46 2
07:00 63 J/kg 2.4 K 0 % 0 % 0 % 0 m²/s² 0 0 2.64 3
08:00 42 J/kg 2.1 K 0 % 0 % 0 % 0 m²/s² 0 0 2.43 80
09:00 65 J/kg 1.3 K 0 % 0 % 0 % 0 m²/s² 0 0 1.51
10:00 151 J/kg 0.7 K 0 % 0 % 0 % 0 m²/s² 0 0 0.94
11:00 194 J/kg 0.5 K 0 % 0 % 0 % 0 m²/s² 0 0 1.34
Temp Baro Wind Neerslag
  EWN Forecast EWN WRFDA DWD ICON FMI HIRLAM MET Norway GFS
 07:29     18:38    Daglengte: 11:09 Vandaag
14:00 13.4° 1012.6 hPa 4.2 m/s 0.0 mm 14.5° 1011.2 hPa 6.3 m/s 0.1 mm 12.9° 1012.7 hPa 5.1 m/s -1.9 mm 13.4° 1012.7 hPa 3.5 m/s 0.0 mm 14.6° 1011.7 hPa 5.9 m/s
17:00 13.3° 1011.0 hPa 5.2 m/s 0.0 mm 13.8° 1010.0 hPa 6.8 m/s 0.5 mm 13.2° 1011.4 hPa 5.2 m/s 0.0 mm 14.1° 1010.9 hPa 4.3 m/s 0.0 mm 13.4° 1010.0 hPa 6.1 m/s
20:00 13.1° 1008.6 hPa 5.2 m/s 0.0 mm 13.5° 1008.2 hPa 6.4 m/s 1.2 mm 12.9° 1008.9 hPa 5.0 m/s 0.2 mm 14.1° 1008.4 hPa 4.9 m/s 0.0 mm 13.2° 1008.2 hPa 5.9 m/s
23:00 13.3° 1006.7 hPa 6.0 m/s 1.1 mm 13.7° 1007.1 hPa 7.2 m/s 2.9 mm 13.0° 1006.7 hPa 5.8 m/s 0.5 mm 14.0° 1006.4 hPa 5.6 m/s 0.0 mm 13.8° 1006.3 hPa 6.6 m/s
 07:31     18:35    Daglengte: 11:04 Morgen
02:00 13.4° 1005.2 hPa 6.0 m/s 3.0 mm 13.7° 1006.1 hPa 6.5 m/s 8.7 mm 13.4° 1004.9 hPa 5.9 m/s 1.2 mm 14.0° 1005.5 hPa 5.6 m/s 0.0 mm 13.8° 1005.7 hPa 6.8 m/s
05:00 13.5° 1004.4 hPa 5.2 m/s 0.0 mm 13.0° 1005.9 hPa 4.8 m/s 10.5 mm 13.4° 1003.7 hPa 5.4 m/s 0.1 mm 14.3° 1004.6 hPa 4.0 m/s 0.0 mm 13.4° 1004.8 hPa 5.4 m/s
08:00 13.1° 1004.2 hPa 3.9 m/s 0.0 mm 13.3° 1005.0 hPa 3.9 m/s 10.8 mm 12.9° 1003.8 hPa 4.5 m/s -0.0 mm 13.9° 1004.2 hPa 3.5 m/s 0.0 mm 13.5° 1004.2 hPa 5.2 m/s
11:00 13.8° 1003.9 hPa 5.1 m/s 0.0 mm 14.3° 1003.0 hPa 7.3 m/s 19.5 mm 13.7° 1004.5 hPa 4.7 m/s 0.2 mm 14.4° 1002.4 hPa 5.7 m/s 0.0 mm 14.0° 1003.5 hPa 5.0 m/s
14:00 14.3° 1001.1 hPa 6.0 m/s 6.4 mm 14.8° 1001.1 hPa 9.6 m/s 35.5 mm 14.2° 1001.6 hPa 4.3 m/s 0.8 mm 14.5° 1000.4 hPa 6.2 m/s 0.0 mm 14.5° 1000.8 hPa 7.5 m/s
17:00 14.4° 997.9 hPa 8.4 m/s 8.9 mm 14.9° 998.9 hPa 9.0 m/s 40.0 mm 14.3° 998.4 hPa 7.6 m/s 4.6 mm 14.9° 997.7 hPa 8.1 m/s 0.0 mm 14.8° 998.6 hPa 8.2 m/s
20:00 14.2° 997.2 hPa 9.0 m/s 17.0 mm 14.5° 997.1 hPa 11.9 m/s 50.7 mm 14.2° 997.1 hPa 7.6 m/s 9.9 mm 14.5° 998.2 hPa 8.6 m/s 0.0 mm 14.6° 996.6 hPa 9.7 m/s
23:00 13.1° 999.1 hPa 6.9 m/s 4.7 mm 13.5° 998.1 hPa 9.1 m/s 57.2 mm 12.6° 998.2 hPa 6.5 m/s 2.7 mm 13.2° 1002.4 hPa 6.0 m/s 0.0 mm 12.8° 997.4 hPa 8.7 m/s
 07:33     18:33    Daglengte: 11:00 Donderdag 06 Okt
02:00 11.8° 1001.9 hPa 6.1 m/s 0.0 mm 11.5° 999.6 hPa 6.0 m/s 58.7 mm 11.2° 1000.2 hPa 5.9 m/s 0.2 mm 12.4° 1004.0 hPa 5.2 m/s 0.0 mm 11.2° 1000.3 hPa 7.3 m/s
05:00 11.0° 1001.8 hPa 6.0 m/s 6.7 mm 11.0° 1001.5 hPa 6.2 m/s 58.8 mm 10.5° 1001.7 hPa 4.8 m/s 0.0 mm 10.6° 1002.1 hPa 6.9 m/s
08:00 11.2° 1003.2 hPa 6.9 m/s 6.7 mm 11.8° 1002.5 hPa 7.3 m/s 58.8 mm 10.4° 1003.4 hPa 5.9 m/s 0.0 mm 10.6° 1003.4 hPa 6.6 m/s
11:00 12.3° 1005.2 hPa 8.5 m/s 0.0 mm 12.5° 1005.4 hPa 8.6 m/s 59.1 mm 12.1° 1005.2 hPa 8.0 m/s 0.0 mm 11.8° 1006.0 hPa 8.2 m/s
14:00 13.1° 1007.3 hPa 9.1 m/s 0.0 mm 13.2° 1007.0 hPa 10.2 m/s 59.2 mm 13.2° 1007.5 hPa 8.1 m/s 0.0 mm 13.3° 1007.8 hPa 8.5 m/s
17:00 12.1° 1007.6 hPa 8.2 m/s 8.9 mm 12.8° 1007.3 hPa 9.2 m/s 62.1 mm 11.8° 1007.6 hPa 7.0 m/s 0.4 mm 12.2° 1007.9 hPa 8.7 m/s
20:00 12.0° 1009.7 hPa 8.3 m/s 0.0 mm 12.1° 1009.6 hPa 9.5 m/s 63.6 mm 11.5° 1009.4 hPa 6.0 m/s 0.0 mm 10.8° 1010.8 hPa 7.9 m/s
23:00 11.4° 1011.4 hPa 7.7 m/s 0.0 mm 11.4° 1011.0 hPa 9.2 m/s 63.6 mm 11.2° 1011.1 hPa 6.2 m/s 0.0 mm 10.6° 1012.6 hPa 7.8 m/s
 07:36     18:30    Daglengte: 10:54 Vrijdag 07 Okt
02:00 10.7° 1012.2 hPa 5.2 m/s 0.0 mm 11.2° 1012.0 hPa 6.4 m/s 63.6 mm 10.5° 1012.2 hPa 4.9 m/s 0.0 mm 10.7° 1013.3 hPa 7.0 m/s
05:00 11.4° 1011.0 hPa 5.7 m/s 0.0 mm 12.4° 1011.0 hPa 8.1 m/s 63.8 mm 11.1° 1011.0 hPa 5.1 m/s 0.0 mm 11.0° 1012.1 hPa 7.0 m/s
08:00 11.8° 1008.0 hPa 7.0 m/s 7.5 mm 12.7° 1008.3 hPa 8.8 m/s 64.3 mm 11.6° 1007.9 hPa 6.5 m/s 0.5 mm 11.9° 1009.7 hPa 7.9 m/s
11:00 13.7° 1007.0 hPa 10.7 m/s 70.5 mm 13.7° 1007.0 hPa 10.7 m/s 70.5 mm 13.1° 1007.7 hPa 9.5 m/s
14:00 13.7° 1005.5 hPa 9.8 m/s 76.6 mm 13.7° 1005.5 hPa 9.8 m/s 76.6 mm 13.1° 1005.9 hPa 9.5 m/s
17:00 12.9° 1003.5 hPa 9.3 m/s 19.3 mm 12.9° 1003.5 hPa 9.3 m/s 19.3 mm
20:00 12.5° 1001.4 hPa 9.3 m/s 21.2 mm 12.5° 1001.4 hPa 9.3 m/s 21.2 mm
23:00 11.0° 1000.9 hPa 7.6 m/s 22.5 mm 11.0° 1000.9 hPa 7.6 m/s 22.5 mm
 07:38     18:27    Daglengte: 10:49 Zaterdag 08 Okt
02:00 10.2° 999.5 hPa 6.4 m/s 23.5 mm 10.2° 999.5 hPa 6.4 m/s 23.5 mm
05:00 9.9° 998.7 hPa 6.8 m/s 24.0 mm 9.9° 998.7 hPa 6.9 m/s 24.0 mm
08:00 9.8° 998.9 hPa 8.1 m/s 24.3 mm 9.8° 998.9 hPa 8.1 m/s 24.3 mm
11:00 11.2° 1000.0 hPa 7.6 m/s 24.3 mm 11.2° 1000.0 hPa 7.6 m/s 24.3 mm
14:00 12.8° 1001.5 hPa 7.3 m/s 24.3 mm 12.8° 1001.5 hPa 7.3 m/s 24.3 mm
17:00 12.0° 1003.6 hPa 7.0 m/s 24.3 mm 12.0° 1003.6 hPa 7.0 m/s 24.3 mm
20:00 9.8° 1006.6 hPa 5.8 m/s 24.3 mm 9.8° 1006.6 hPa 5.8 m/s 24.3 mm
23:00 8.7° 1009.2 hPa 4.9 m/s 24.3 mm 8.7° 1009.2 hPa 4.9 m/s 24.3 mm
 07:40     18:24    Daglengte: 10:44 Zondag 09 Okt
02:00 7.9° 1010.7 hPa 4.1 m/s 24.3 mm 7.9° 1010.7 hPa 4.1 m/s 24.3 mm
05:00 6.9° 1012.0 hPa 2.4 m/s 24.3 mm 6.9° 1012.0 hPa 2.4 m/s 24.3 mm
08:00 6.2° 1013.4 hPa 1.0 m/s 24.3 mm 6.2° 1013.4 hPa 1.0 m/s 24.3 mm
11:00 11.0° 1014.1 hPa 2.5 m/s 24.3 mm 11.0° 1014.1 hPa 2.5 m/s 24.3 mm
14:00 11.8° 1014.0 hPa 5.0 m/s 24.3 mm 11.8° 1014.0 hPa 5.0 m/s 24.3 mm
17:00 11.6° 1013.2 hPa 5.2 m/s 24.4 mm 11.6° 1013.2 hPa 5.2 m/s 24.4 mm
20:00 11.7° 1011.8 hPa 5.5 m/s 24.5 mm 11.7° 1011.8 hPa 5.5 m/s 24.5 mm
23:00 11.6° 1010.7 hPa 6.8 m/s 24.7 mm 11.6° 1010.7 hPa 6.8 m/s 24.7 mm
 07:43     18:21    Daglengte: 10:38 Maandag 10 Okt
02:00 10.8° 1008.0 hPa 6.4 m/s 24.7 mm 10.8° 1008.0 hPa 6.4 m/s 24.7 mm
05:00 11.2° 1004.7 hPa 6.5 m/s 24.7 mm 11.2° 1004.7 hPa 6.5 m/s 24.7 mm
08:00 10.9° 1002.3 hPa 7.2 m/s 27.0 mm 10.9° 1002.3 hPa 7.2 m/s 27.0 mm
11:00 10.9° 1002.6 hPa 7.0 m/s 28.7 mm 10.9° 1002.6 hPa 7.0 m/s 28.7 mm
14:00 11.8° 1003.4 hPa 7.4 m/s 28.7 mm 11.8° 1003.4 hPa 7.4 m/s 28.7 mm
17:00 10.8° 1003.8 hPa 7.3 m/s 29.3 mm 10.8° 1003.8 hPa 7.3 m/s 29.3 mm
20:00 9.7° 1004.5 hPa 7.4 m/s 29.5 mm 9.6° 1004.5 hPa 7.4 m/s 29.5 mm
23:00 9.7° 1003.2 hPa 8.1 m/s 30.7 mm 9.7° 1003.2 hPa 8.1 m/s 30.7 mm
 07:45     18:18    Daglengte: 10:33 Dinsdag 11 Okt
02:00 9.6° 1002.2 hPa 8.3 m/s 31.0 mm 9.6° 1002.2 hPa 8.3 m/s 31.0 mm
05:00 9.9° 1001.0 hPa 8.5 m/s 31.1 mm 9.9° 1001.0 hPa 8.5 m/s 31.1 mm
08:00 10.3° 999.9 hPa 8.7 m/s 31.2 mm 10.3° 999.9 hPa 8.7 m/s 31.2 mm
11:00 11.2° 1000.8 hPa 7.7 m/s 31.4 mm 11.2° 1000.8 hPa 7.7 m/s 31.4 mm
14:00 12.4° 1000.4 hPa 7.0 m/s 31.5 mm 12.4° 1000.4 hPa 7.0 m/s 31.5 mm
20:00 10.4° 1000.6 hPa 5.8 m/s 31.5 mm 10.4° 1000.6 hPa 5.8 m/s 31.5 mm
 07:47     18:15    Daglengte: 10:28 Woensdag 12 Okt
02:00 9.6° 999.9 hPa 5.2 m/s 31.5 mm 9.6° 999.9 hPa 5.2 m/s 31.5 mm
08:00 8.5° 996.6 hPa 1.4 m/s 31.7 mm 8.5° 996.6 hPa 1.4 m/s 31.7 mm
14:00 8.4° 994.5 hPa 3.4 m/s 33.7 mm 8.4° 994.5 hPa 3.4 m/s 33.7 mm
20:00 6.1° 997.3 hPa 1.8 m/s 35.5 mm 6.1° 997.3 hPa 1.8 m/s 35.5 mm
 07:50     18:12    Daglengte: 10:22 Donderdag 13 Okt
02:00 5.1° 1000.3 hPa 1.0 m/s 35.5 mm 5.1° 1000.3 hPa 1.0 m/s 35.5 mm
08:00 5.0° 1002.1 hPa 0.9 m/s 35.5 mm 5.0° 1002.1 hPa 0.9 m/s 35.5 mm
14:00 11.3° 1000.6 hPa 2.9 m/s 35.6 mm 11.3° 1000.6 hPa 2.9 m/s 35.6 mm
20:00 8.9° 991.4 hPa 6.6 m/s 36.5 mm 8.9° 991.4 hPa 6.6 m/s 36.5 mm
 07:52     18:10    Daglengte: 10:18 Vrijdag 14 Okt
02:00 8.8° 984.6 hPa 4.5 m/s 53.3 mm 8.8° 984.6 hPa 4.5 m/s 53.3 mm
08:00 8.2° 1005.5 hPa 2.2 m/s 0.6 mm
14:00 11.0° 1005.1 hPa 3.4 m/s 1.3 mm
20:00 9.0° 1004.6 hPa 2.5 m/s 1.2 mm
 07:54     18:07    Daglengte: 10:13 Zaterdag 15 Okt
02:00 8.6° 1004.6 hPa 2.5 m/s 1.3 mm
08:00 8.3° 1003.9 hPa 2.5 m/s 1.6 mm
14:00 10.9° 1003.9 hPa 3.0 m/s 1.6 mm
20:00 9.0° 1004.1 hPa 2.5 m/s 1.8 mm
 07:57     18:04    Daglengte: 10:07 Zondag 16 Okt
02:00 8.3° 1004.8 hPa 2.0 m/s 0.8 mm
08:00 7.4° 1005.6 hPa 0.8 m/s 0.7 mm
14:00 10.7° 1007.0 hPa 1.5 m/s 0.6 mm
20:00 7.8° 1008.1 hPa 0.8 m/s 0.5 mm
 07:59     18:01    Daglengte: 10:02 Maandag 17 Okt
02:00 6.6° 1009.0 hPa 0.6 m/s 0.4 mm
08:00 5.8° 1010.0 hPa 0.6 m/s 0.6 mm
14:00 9.9° 1011.1 hPa 1.3 m/s 0.8 mm
20:00 7.3° 1012.1 hPa 0.9 m/s 0.5 mm
 08:02     17:59    Daglengte: 9:57 Dinsdag 18 Okt
02:00 6.5° 1012.6 hPa 0.8 m/s 0.5 mm
08:00 5.8° 1012.8 hPa 0.7 m/s 0.8 mm
14:00 9.8° 1012.7 hPa 1.7 m/s 0.5 mm
20:00 7.7° 1012.2 hPa 1.5 m/s 0.8 mm
 08:04     17:56    Daglengte: 9:52 Woensdag 19 Okt
02:00 7.0° 1011.7 hPa 1.0 m/s 0.6 mm
08:00 6.6° 1011.3 hPa 1.3 m/s 0.5 mm
FMI Hirlam - 7.5 km EWN WRFDA - 12 km DWD ICON - 7 km GFS - 25 km Basiskaart






























































Updatetijd (Europe/Amsterdam) Resolutie Lengte Stap
FMI Hirlam 07:00, 13:00, 19:00, 01:00 7.5 km 49h 1h
EWN WRFDA 09:45, 15:45, 21:45, 03:45 12 km 73h 1h
DWD ICON 05:45, 11:45, 17:45, 23:45 7 km 75h 1h
GFS 08:00, 14:00, 20:00, 02:00 25 km 237h 3h
30+ mm
25-30 mm
20-25 mm
15-20 mm
10-15 mm
6-10 mm
4-6 mm
2-4 mm
1-2 mm
0.5-1 mm
0.2-0.5 mm
0.1-0.2 mm
30+ mm
25-30 mm
20-25 mm
15-20 mm
10-15 mm
6-10 mm
4-6 mm
2-4 mm
1-2 mm
0.5-1 mm
0.2-0.5 mm
0.1-0.2 mm
Sneeuwval
Natte sneeuw
Hagel
Vorst
30+ mm
25-30 mm
20-25 mm
15-20 mm
10-15 mm
6-10 mm
4-6 mm
2-4 mm
1-2 mm
0.5-1 mm
0.2-0.5 mm
0.1-0.2 mm
Sneeuwval
Natte sneeuw
Hagel
Vorst
Onweer
50 mm
40 mm
30 mm
26 mm
22 mm
18 mm
14 mm
10 mm
9 mm
8 mm
7 mm
6 mm
5 mm
4.5 mm
4 mm
3.5 mm
3 mm
2.5 mm
2 mm
1.5 mm
1 mm
0.8 mm
0.6 mm
0.4 mm
0.2 mm
0.05 mm
35°
30°
25°
20°
15°
10°
-5°
-10°
-15°
-20°
-25°
-30°
-35°
33> m/s
29 m/s
25 m/s
21 m/s
17 m/s
14 m/s
11 m/s
8 m/s
5 m/s
3 m/s
0 m/s
2600 J/kg
2400 J/kg
2200 J/kg
2000 J/kg
1800 J/kg
1600 J/kg
1400 J/kg
1200 J/kg
1000 J/kg
800 J/kg
600 J/kg
400 J/kg
200 J/kg
70 dBZ
65 dBZ
60 dBZ
55 dBZ
50 dBZ
45 dBZ
40 dBZ
35 dBZ
30 dBZ
25 dBZ
20 dBZ
15 dBZ
10 dBZ
5 dBZ
-1 K
-2 K
-3 K
-4 K
-5 K
-6 K
-7 K
-8 K
-9 K
950 m²/s²
900 m²/s²
850 m²/s²
800 m²/s²
750 m²/s²
700 m²/s²
650 m²/s²
600 m²/s²
550 m²/s²
500 m²/s²
450 m²/s²
400 m²/s²
350 m²/s²
300 m²/s²
250 m²/s²
200 m²/s²
150 m²/s²
100 m²/s²
46 m/s
44 m/s
42 m/s
40 m/s
38 m/s
36 m/s
34 m/s
32 m/s
30 m/s
28 m/s
26 m/s
24 m/s
22 m/s
20 m/s
16 m/s
12 m/s
8 m/s
4 m/s
30 m/s
28 m/s
26 m/s
24 m/s
22 m/s
20 m/s
18 m/s
16 m/s
14 m/s
12 m/s
10 m/s
8 m/s
6 m/s
4 m/s
2 m/s
3.0
2.8
2.6
2.4
2.2
2.0
1.8
1.6
1.4
1.2
1.0
0.8
0.6
0.4
0.2
15
14
13
12
11
10
9
8
7
6
5
4
3
2
1
90%
80%
70%
60%
50%
40%
30%
20%
10%
42
40
38
36
34
32
30
28
26
24
22
20
18
16
14
12
90+ cm
80-90 cm
70-80 cm
60-70 cm
50-60 cm
40-50 cm
30-40 cm
20-30 cm
10-20 cm
1-10 cm
Sneeuwval
Natte sneeuw
Regen
>120 mm
115 mm
110 mm
105 mm
100 mm
95 mm
90 mm
85 mm
80 mm
75 mm
70 mm
65 mm
60 mm
55 mm
50 mm
45 mm
45 mm
40 mm
35 mm
30 mm
25 mm
20 mm
15 mm
10 mm
5 mm
0.1 mm
960 hPa
880 hPa
800 hPa
720 hPa
640 hPa
560 hPa
584 gpdm
568 gpdm
552 gpdm
536 gpdm
520 gpdm
504 gpdm
488 gpdm
Extreem zwaar Noodweer Kans op onweer
15% 15% 5% 50% 15%

Dag




Kaart






35°
30°
25°
20°
15°
10°
-5°
-10°
-15°
-20°
-25°
-30°
-35°
33> m/s
29 m/s
25 m/s
21 m/s
17 m/s
14 m/s
11 m/s
8 m/s
5 m/s
3 m/s
0 m/s
Extreem zwaar Noodweer Kans op onweer
15% 15% 5% 50% 15%
>120 mm
115 mm
110 mm
105 mm
100 mm
95 mm
90 mm
85 mm
80 mm
75 mm
70 mm
65 mm
60 mm
55 mm
50 mm
45 mm
45 mm